[[[{"header":{"parameterUnit":"kt","parameterCategory":2,"dx":1,"dy":1,"la1":30.253999710083008,"la2":30.299108505249023,"lo1":-89.0895004272461,"lo2":-89.04439544677734,"nx":28,"ny":28,"refTime":"2022-10-04T21:00:00:Z","depth":0,"parameterNumber":1,"parameterNumberName":"U-component_of_WINDS"},"data":[0.7812,0.7738,0.7746,0.7662,0.7654,0.7596,0.7577,0.7552,0.7533,0.746,0.7418,0.7413,0.7392,0.7339,0.7289,0.7287,0.7263,0.7231,0.7233,0.7377,0.7396,0.7415,0.7434,0.7228,0.7227,0.7082,0.7081,0.708,0.7912,0.7905,0.7865,0.783,0.7793,0.7829,0.7802,0.7767,0.7713,0.7689,0.7649,0.7583,0.7531,0.752,0.7468,0.7426,0.7436,0.7411,0.7412,0.7406,0.7561,0.7582,0.7403,0.7404,0.7404,0.7404,0.7404,0.7404,0.8095,0.8051,0.8036,0.7992,0.7976,0.7951,0.7908,0.7907,0.7864,0.7817,0.7832,0.7768,0.7742,0.7682,0.7662,0.7609,0.7636,0.7608,0.76,0.7592,0.758,0.7781,0.76,0.7601,0.7601,0.7602,0.7602,0,0.823,0.824,0.8203,0.8167,0.8135,0.8107,0.8082,0.8056,0.8075,0.8038,0.7984,0.7953,0.7889,0.7835,0.7788,0.7772,0.7798,0.7803,0.7783,0.7772,0.7768,0.7763,0.8011,0.7807,0.7809,0.781,0.7811,0.7812,0.841,0.836,0.8349,0.8321,0.8311,0.8265,0.8238,0.8261,0.823,0.8199,0.8156,0.8105,0.8065,0.7972,0.7965,0.7915,0.7926,0.7847,0.7918,0.7911,0.7918,0.7919,0.7911,0.7831,0.7828,0.7826,0.7825,0,0.851,0.8526,0.8449,0.8443,0.844,0.8383,0.8375,0.833,0.8334,0.827,0.8257,0.826,0.8204,0.8211,0.8148,0.8151,0.8046,0.8062,0.8055,0.8056,0.7982,0.7987,0.7751,0.7719,0.7939,0.7937,0.7935,0,0.8667,0.86,0.8626,0.8581,0.8505,0.8531,0.8453,0.8449,0.8432,0.8383,0.8419,0.8371,0.8388,0.8339,0.8346,0.8262,0.8252,0.8248,0.8249,0.8242,0.8241,0.8219,0.8227,0.8262,0.8263,0.8264,0.8265,0,0.8818,0.8755,0.8684,0.8671,0.8656,0.862,0.8612,0.8593,0.8566,0.8532,0.8514,0.8471,0.8446,0.841,0.8418,0.8466,0.8318,0.8385,0.8313,0.8312,0.8277,0.8278,0.8072,0.8266,0.8267,0.8267,0.8268,0,0.8946,0.8919,0.8814,0.8802,0.8784,0.8736,0.8699,0.866,0.8637,0.864,0.8613,0.8636,0.857,0.8634,0.8539,0.8598,0.857,0.8562,0.8557,0.8546,0.8618,0.8494,0.8303,0.828,0.8542,0.8544,0.8546,0,0.9112,0.9012,0.9036,0.8934,0.8889,0.8934,0.8881,0.8861,0.8862,0.8819,0.8818,0.8768,0.8819,0.8804,0.8757,0.8751,0.8674,0.8762,0.8688,0.8686,0.8689,0.8515,0.8482,0.8345,0.8576,0.8573,0.857,0,0.9242,0.9231,0.9212,0.9197,0.9181,0.9143,0.9083,0.9043,0.9013,0.8989,0.8934,0.8867,0.8901,0.8877,0.8891,0.8841,0.8726,0.8884,0.8883,0.885,0.8593,0.8562,0.8539,0.8746,0.8743,0.874,0.8594,0,0.9423,0.9377,0.9328,0.9299,0.9273,0.9212,0.9227,0.9196,0.9215,0.9217,0.914,0.9125,0.9079,0.9058,0.9075,0.8962,0.898,0.9017,0.9077,0.8965,0.8916,0.8897,0.9149,0.915,0.9152,0.9153,0,0,0.9574,0.951,0.9539,0.9484,0.9463,0.9513,0.9445,0.943,0.9397,0.9379,0.9415,0.9317,0.9303,0.9206,0.9172,0.9155,0.9133,0.9173,0.902,0.9005,0.8991,0.8939,0.8919,0.9156,0.9157,0.9157,0.9158,0,0.9643,0.9639,0.9576,0.9563,0.9545,0.9553,0.9538,0.9527,0.9525,0.9453,0.9489,0.9444,0.9367,0.9345,0.9324,0.9187,0.9213,0.9173,0.9093,0.9035,0.9018,0.9003,0.8949,0.893,0.9161,0.9161,0.9161,0,0.9771,0.9767,0.9739,0.97,0.9688,0.9641,0.971,0.9659,0.9622,0.9673,0.96,0.9593,0.9566,0.9476,0.9436,0.9465,0.9285,0.9346,0.9336,0.933,0.9274,0.9254,0.9236,0.9473,0.9475,0.9475,0,0,0.9827,0.9788,0.9789,0.9716,0.9706,0.9717,0.9694,0.9711,0.9691,0.9683,0.9675,0.965,0.9604,0.9574,0.9533,0.9433,0.9425,0.9384,0.9369,0.9357,0.9345,0.9285,0.9265,0.9479,0.9479,0.948,0,0,0.9853,0.9855,0.9879,0.9798,0.9779,0.9773,0.9725,0.9754,0.972,0.9727,0.9749,0.9744,0.966,0.9651,0.9703,0.9553,0.9613,0.9601,0.9561,0.9543,0.9529,0.953,0.9767,0,0,0,0,0,0.9933,0.9855,0.9878,0.9867,0.9816,0.9761,0.9754,0.9774,0.9816,0.9778,0.9775,0.9808,0.9683,0.973,0.9715,0.9656,0.9531,0.9522,0.9513,0.9439,0.942,0.9403,0,0,0,0,0,0,0.9929,0.9915,0.988,0.9871,0.9859,0.9765,0.984,0.9843,0.9821,0.9828,0.9808,0.9807,0.982,0.9738,0.9725,0.9668,0.9772,0.9527,0.9519,0.9512,0.9432,0.9416,0.9403,0,0,0,0,0,0.9925,0.9915,0.9829,0.9872,0.9862,0.9869,0.9843,0.9846,0.9829,0.9825,0.9827,0.9846,0.9818,0.9808,0.973,0.9673,0.9781,0.9776,0.9522,0.9516,0.9511,0.9425,0,0,0,0,0,0,0.9923,0.9915,0.9828,0.9825,0.9904,0.9875,0.9872,0.9849,0.9828,0.9828,0.9865,0.9871,0.9815,0.9808,0.98,0.9674,0.9788,0.9783,0.978,0.9517,0.9513,0.9508,0,0,0,0,0,0,0.9921,0.9913,0.9827,0.9866,0.9868,0.988,0.9877,0.9814,0.9826,0.9868,0.9873,0.9868,0.9825,0.9808,0.9802,0.9703,0.9794,0.9789,0.9786,0.9784,0.9514,0.951,0,0,0,0,0,0,0.9918,0.9911,0.9867,0.9868,0.9871,0.9844,0.9824,0.977,0.9866,0.9868,0.9874,0.9878,0.9824,0.9818,0.9803,0.9706,0.9703,0.9794,0.9791,0.9788,0.9787,0,0,0,0,0,0,0,0.9915,0.996,0.9843,0.987,0.9873,0.9803,0.9802,0.9801,0.9866,0.987,0.9873,0.9877,0.9822,0.9816,0.9811,0.9708,0,0,0.9794,0.9792,0,0,0,0,0,0,0,0,0.9963,0.9961,0.9843,0.9842,0.9842,0.9802,0.9802,0.9801,0.9867,0.987,0.9873,0.9875,0.982,0.9816,0.9812,0,0,0,0,0,0,0,0,0,0,0,0,0,0,0,0.9843,0.9843,0,0.9802,0.9802,0.9801,0.9867,0.987,0.9872,0.9874,0.9819,0.9815,0.9812,0,0,0,0,0,0,0,0,0,0,0,0,0,0,0,0,0,0,0,0,0,0,0,0,0,0,0,0,0,0,0,0,0,0,0,0,0,0,0,0,0,0,0,0,0,0,0,0,0,0,0,0,0,0,0,0,0,0,0,0,0,0,0,0,0,0,0,0,0]}],[{"header":{"parameterUnit":"kt","parameterCategory":2,"dx":1,"dy":1,"la1":30.253999710083008,"la2":30.299108505249023,"lo1":-89.0895004272461,"lo2":-89.04439544677734,"nx":28,"ny":28,"refTime":"2022-10-04T21:00:00:Z","depth":0,"parameterNumber":2,"parameterNumberName":"V-component_of_WINDS"},"data":[3.1833,3.1813,3.1843,3.1833,3.1859,3.1856,3.1865,3.1878,3.1897,3.1896,3.19,3.1927,3.1955,3.1966,3.197,3.1982,3.198,3.1952,3.1969,3.2074,3.209,3.2106,3.2113,3.1952,3.1952,3.1855,3.1855,3.1854,3.1906,3.1932,3.1936,3.196,3.1963,3.2009,3.2031,3.203,3.2026,3.2049,3.2055,3.2056,3.206,3.2099,3.2107,3.2096,3.2116,3.2095,3.2095,3.2098,3.2212,3.2219,3.2078,3.2078,3.2078,3.2079,3.2079,3.2079,3.2047,3.2034,3.2067,3.2072,3.2092,3.2107,3.2099,3.2134,3.2137,3.2151,3.2186,3.2181,3.2208,3.2232,3.2247,3.2243,3.2271,3.2256,3.2252,3.2247,3.2236,3.2367,3.2246,3.2246,3.2247,3.2247,3.2248,0,3.2159,3.2185,3.2192,3.2207,3.2212,3.2226,3.2244,3.224,3.2304,3.2304,3.2305,3.2311,3.2321,3.2324,3.2339,3.2358,3.2402,3.2411,3.2401,3.2382,3.2363,3.237,3.2552,3.2413,3.2415,3.2416,3.2417,3.2418,3.2301,3.2283,3.2332,3.2332,3.235,3.2349,3.2355,3.2413,3.2416,3.2445,3.243,3.2435,3.2442,3.2438,3.2476,3.2483,3.2504,3.2448,3.2505,3.2489,3.25,3.2499,3.2496,3.2434,3.2432,3.243,3.2429,0,3.2377,3.2428,3.241,3.246,3.2472,3.2449,3.2492,3.248,3.2515,3.2504,3.2504,3.2557,3.2557,3.2605,3.2614,3.2638,3.2597,3.262,3.2588,3.2594,3.2546,3.2549,3.2389,3.237,3.254,3.2539,3.2537,0,3.2517,3.2491,3.2567,3.2554,3.2527,3.2587,3.2558,3.2585,3.261,3.2602,3.2663,3.2654,3.2717,3.2714,3.275,3.2726,3.2728,3.2744,3.2754,3.2737,3.2735,3.2736,3.2742,3.2779,3.278,3.2781,3.2781,0,3.2629,3.2641,3.262,3.263,3.2681,3.2669,3.2689,3.2719,3.2723,3.2737,3.274,3.275,3.2755,3.2762,3.2808,3.2845,3.2781,3.2841,3.2797,3.2795,3.2777,3.2777,3.2626,3.2782,3.2783,3.2783,3.2783,0,3.2749,3.2764,3.2727,3.277,3.277,3.2756,3.2772,3.2772,3.2798,3.2821,3.2832,3.2877,3.2862,3.2918,3.2897,3.2932,3.2933,3.2948,3.2946,3.2944,3.3005,3.2909,3.2764,3.2749,3.2946,3.2948,3.2949,0,3.2862,3.2839,3.2891,3.2854,3.285,3.2919,3.2905,3.2927,3.2957,3.2956,3.2988,3.2986,3.3039,3.3045,3.3029,3.306,3.3015,3.3068,3.3061,3.306,3.305,3.2917,3.2882,3.2791,3.2967,3.2965,3.2964,0,3.2956,3.302,3.301,3.3024,3.3064,3.3061,3.3045,3.3058,3.3054,3.3073,3.3059,3.306,3.3098,3.3107,3.3145,3.3125,3.3047,3.3169,3.317,3.3143,3.2982,3.2948,3.2933,3.3077,3.3075,3.3073,3.2979,0,3.3121,3.3117,3.3092,3.3122,3.3127,3.3108,3.3161,3.316,3.3197,3.3228,3.321,3.324,3.3251,3.3247,3.3282,3.3223,3.324,3.3281,3.3336,3.325,3.322,3.3208,3.3377,3.3379,3.3381,3.3382,0,0,3.3215,3.321,3.3268,3.3255,3.3263,3.3335,3.3309,3.3325,3.3355,3.3358,3.3391,3.3394,3.3416,3.3388,3.3365,3.337,3.3363,3.3391,3.3291,3.3281,3.3272,3.3238,3.3225,3.3385,3.3386,3.3386,3.3387,0,3.3286,3.3312,3.3287,3.3307,3.3338,3.3374,3.3368,3.341,3.3429,3.3413,3.347,3.3465,3.3466,3.3482,3.349,3.3398,3.3439,3.3397,3.3329,3.3306,3.3294,3.3283,3.3247,3.3234,3.3391,3.339,3.339,0,3.3386,3.342,3.3414,3.3438,3.3458,3.3452,3.3525,3.3515,3.3511,3.3587,3.3569,3.3593,3.3619,3.3586,3.3573,3.3601,3.3504,3.3545,3.3536,3.3535,3.3515,3.35,3.3486,3.3662,3.3663,3.3664,0,0,3.344,3.3437,3.349,3.3457,3.3466,3.3518,3.352,3.3557,3.3581,3.3589,3.362,3.364,3.3641,3.364,3.3644,3.3601,3.361,3.3576,3.3564,3.3553,3.3546,3.3523,3.3508,3.3667,3.3667,3.3667,0,0,3.3465,3.3526,3.3559,3.3528,3.3549,3.3598,3.3574,3.3616,3.3625,3.3633,3.3693,3.3701,3.3671,3.3691,3.3723,3.3664,3.3718,3.3712,3.3651,3.3636,3.3623,3.3618,3.3799,0,0,0,0,0,3.3564,3.3519,3.3548,3.3551,3.3581,3.3581,3.3585,3.3635,3.3673,3.3653,3.3685,3.3731,3.3721,3.375,3.3751,3.3714,3.3702,3.3696,3.369,3.3602,3.3586,3.3571,0,0,0,0,0,0,3.3566,3.3569,3.355,3.3596,3.3603,3.3584,3.3658,3.367,3.3676,3.3685,3.3723,3.3732,3.3773,3.3753,3.3753,3.3717,3.3799,3.37,3.3694,3.369,3.3597,3.3583,3.3571,0,0,0,0,0,3.3567,3.357,3.3605,3.3597,3.3603,3.3658,3.366,3.3671,3.3676,3.3726,3.3736,3.3713,3.3771,3.3774,3.3753,3.3716,3.3799,3.3799,3.3696,3.3692,3.3688,3.359,0,0,0,0,0,0,3.3568,3.3579,3.3607,3.3611,3.3618,3.366,3.3669,3.3671,3.3718,3.3727,3.3718,3.3725,3.3768,3.3771,3.3774,3.3712,3.38,3.3799,3.3799,3.3693,3.369,3.3687,0,0,0,0,0,0,3.3578,3.3582,3.3609,3.3633,3.364,3.3662,3.3669,3.3659,3.3717,3.3708,3.3715,3.3721,3.3765,3.3769,3.3771,3.3753,3.38,3.38,3.3799,3.3799,3.369,3.3688,0,0,0,0,0,0,3.358,3.3584,3.3632,3.3637,3.3644,3.3688,3.3653,3.368,3.3739,3.3704,3.3746,3.3749,3.3761,3.3764,3.3769,3.3749,3.3752,3.38,3.38,3.38,3.38,0,0,0,0,0,0,0,3.3582,3.355,3.3585,3.3641,3.3647,3.3644,3.3645,3.3646,3.374,3.3743,3.3745,3.3748,3.3801,3.3801,3.3801,3.3747,0,0,3.38,3.38,0,0,0,0,0,0,0,0,3.355,3.355,3.3585,3.3586,3.3587,3.3645,3.3645,3.3646,3.3741,3.3743,3.3745,3.3747,3.3801,3.3801,3.3801,0,0,0,0,0,0,0,0,0,0,0,0,0,0,0,3.3586,3.3586,0,3.3645,3.3645,3.3646,3.3741,3.3743,3.3744,3.3746,3.3801,3.3801,3.3801,0,0,0,0,0,0,0,0,0,0,0,0,0,0,0,0,0,0,0,0,0,0,0,0,0,0,0,0,0,0,0,0,0,0,0,0,0,0,0,0,0,0,0,0,0,0,0,0,0,0,0,0,0,0,0,0,0,0,0,0,0,0,0,0,0,0,0,0,0]}]]]